Location: Gloden
(48.4833°N, 15.3167°E)
Time: 04:39:58
(UTC+00:00)

Cosmos 44 Rocket - Pass Details

Date: 15 December 2019
Orbit: 660 x 730 km, 65.1° (Epoch: 18 January)

Event Time Altitude Azimuth Distance (km) Brightness Sun altitude
Rises 05:14:23 0° 212° (SSW) 3,057 6.5 -13.9°
Reaches altitude 10° 05:16:44 10° 211° (SSW) 2,133 5.7 -13.5°
Maximum altitude 05:21:34 77° 126° (SE) 700 3.4 -12.8°
Drops below altitude 10° 05:26:21 10° 40° (NE) 2,106 6.0 -12.1°
Sets 05:28:40 0° 40° (NE) 3,016 6.8 -11.7°
